sat.trackr.live / text

‹ back to catalog

STARLINK-4435

NORAD 53502 · 2022-099AP

PAYLOAD ACTIVE UNKNOWN

§ Identity

Operator
Country
US
Launch date
2022-08-12
Launch site
AFWTR
Launch vehicle
Mass (kg)
RCS (m²)

Purposes: comms

External: N2YO · Heavens-Above · Gunter

§ Orbital elements

Epoch: 2026-09-19T14:35:12.726816Z

Period
93.69 min
Inclination
97.4895°
Eccentricity
0.0001011
Mean motion
15.36972198 rev/d
Perigee alt
454.4 km
Apogee alt
455.8 km
Semi-major
6,833.2 km
B*
-2.8829e-5
RAAN
31.1329°
Arg perigee
87.7389°
Mean anomaly
272.3971°
Rev number
22,582

§ Raw data

STARLINK-44351 53502U 22099AP  26262.60778619 -.00001123  00000+0 -28829-4 0  99902 53502  97.4895  31.1329 0001011  87.7389 272.3971 15.36972198225824

JSON: /api/v1/satellites/53502 · /tle

For live sub-satellite position, see the globe view (requires WebGL).

§ Visibility from observer

Set your observer location to see the next 7 days of passes ≥ 10°. The values pass through the URL so the page stays shareable.

No JS? Fill the form by hand. The geolocation button needs JavaScript.